Regional Weather Roundup
Issued by NWS Columbia, SC

Home | Current Version | Previous Version | Text Only | Print | Product List | Glossary On
Versions: 1 2 3 4 5 6 7 8 9 10 11 12 13 14 15 16 17 18 19 20 21 22 23 24 25 26 27 28 29 30 31 32 33 34 35 36 37 38 39 40 41 42 43 44 45 46 47 48 49 50
000
ASUS42 KCAE 291510
RWRCAE
REGIONAL WEATHER ROUNDUP
NATIONAL WEATHER SERVICE COLUMBIA SC
1000 AM EST THU JAN 29 2015

NOTE: "FAIR" INDICATES FEW OR NO CLOUDS BELOW 12,000 FEET WITH NO
SIGNIFICANT WEATHER AND/OR OBSTRUCTIONS TO VISIBILITY.

NOT ALL STATIONS ARE QUALITY CONTROLLED BY THE NATIONAL
WEATHER SERVICE. USE DATA WITH CAUTION...ESPECIALLY
DEWPOINT OBSERVATIONS.

SCZ001>056-GAZ040-063>065-077-291600-
...UPSTATE SOUTH CAROLINA...

CITY           SKY/WX    TMP DP  RH WIND       PRES   REMARKS
ANDERSON       MOSUNNY   40  28  62 S6        30.32S
LIBERTY        PTSUNNY   36  25  63 MISG      30.30F
SPARTANBURG    CLOUDY    39  25  56 SW7       30.31S WCI  34
CLEMSON        PTSUNNY   41  23  48 SW3       30.32S
GREENVILLE     CLOUDY    42  21  43 SW12      30.31R
GREENWOOD      MOSUNNY   44  25  47 SW9       30.35R
GREER          CLOUDY    43  22  43 SW12      30.29S
ROCK HILL      MOSUNNY   40  23  50 SW10      30.33S WCI  33
CHESTER        MOSUNNY   43  23  45 SW3       30.34R
LAURENS        PTSUNNY   37  32  81 SW5       30.33R WCI  34


...CENTRAL SOUTH CAROLINA...

CITY           SKY/WX    TMP DP  RH WIND       PRES   REMARKS
COLUMBIA APT   PTSUNNY   40  27  59 CALM      30.36F
COLUMBIA OWENS SUNNY     39  29  67 CALM      30.37F
DARLINGTON     MOSUNNY   37  28  70 S3        30.37F
FLORENCE       PTSUNNY   41  28  60 S7        30.36F
MCENTIRE ANGB  PTSUNNY   41  25  52 S5        30.36F
ORANGEBURG     SUNNY     42  31  64 CALM      30.38S
SUMTER SHAW    MOSUNNY   43  27  53 S8        30.35F
NEWBERRY       MOSUNNY   39  28  65 SW6       30.37R WCI  35
AIKEN          FAIR      43  28  56 S6        30.37F
BARNWELL       FAIR      43  32  65 S6        30.38S
MANNING        FAIR      41  34  75 CALM      30.38S
CAMDEN         FAIR      39  25  56 CALM      30.37S
LANCASTER      MOSUNNY   41  28  60 SW7       30.34S
WINNSBORO      SUNNY     41  25  52 S9        30.33F


...EASTERN AND COASTAL SOUTH CAROLINA...

CITY           SKY/WX    TMP DP  RH WIND       PRES   REMARKS
MYRTLE BEACH   MOSUNNY   43  27  52 NE8       30.40S
N MYRTLE BCH   SUNNY     42  22  44 NE5       30.38S
CONWAY         FAIR      41  27  56 CALM      30.40R
MARION         FAIR      41  27  56 CALM      30.38F
HARTSVILLE     FAIR      43  32  65 S6        30.36S
FLORENCE       PTSUNNY   41  28  60 S7        30.36F
DARLINGTON     MOSUNNY   37  28  70 S3        30.37F
CHARLESTON APT MOSUNNY   46  28  49 VRB3      30.38R
MOUNT PLEASANT FAIR     N/A N/A N/A CALM      30.38R
BEAUFORT       PTSUNNY   48  34  58 N3        30.39R


...EASTERN GEORGIA...

CITY           SKY/WX    TMP DP  RH WIND       PRES   REMARKS
AUGUSTA BUSH F SUNNY     38  32  79 CALM      30.37F
AUGUSTA DANIEL SUNNY     42  26  53 S5        30.36S
THOMSON        SUNNY     46  30  54 SW3       30.40R
WASHINGTON     FAIR      43  32  65 SW7       30.34S
CLAXTON        FAIR      43  36  75 CALM      30.38S
SYLVANIA       SUNNY     44  34  66 SE5       30.38S
STATESBORO     SUNNY     44  35  68 S6        30.38S
SAVANNAH       PTSUNNY   48  36  63 CALM      30.38R


...SOUTHERN NORTH CAROLINA...

CITY           SKY/WX    TMP DP  RH WIND       PRES   REMARKS
CHARLOTTE      PTSUNNY   40  22  48 SW9       30.32S WCI  34
MONROE         MOSUNNY   42  24  49 SW10      30.31S
WADESBORO      MOSUNNY   36  29  75 CALM      30.34F
ROCKINGHAM       N/A     38  25  57 S3        30.34F
RUTHERFORDTON  CLOUDY    33  22  64 S5        30.29F WCI  28
ASHEVILLE      CLOUDY    40  26  57 S9        30.22F WCI  34

$$


USA.gov is the U.S. government's official web portal to all federal, state and local government web resources and services.